W7YP Weather Reports


time (UTC)temp
C
wind
direction
speed
KPH
gust
KPH
rain 1hr
cm
rain 24hr
cm
rain mn
cm
humidity
%
barometer
mb
20260906031634 11 144 0.0 4.8 0.00 0.05 0.05 93 1019.4
20260906031129 11 144 0.0 4.8 0.00 0.05 0.05 92 1019.3
20260906030846 11 144 0.0 3.2 0.00 0.05 0.05 92 1019.3
20260906030120 11 144 0.0 0.0 0.00 0.05 0.05 92 1019.4
20260906025615 11 144 0.0 0.0 0.00 0.05 0.05 92 1019.3
20260906025115 11 144 0.0 0.0 0.00 0.05 0.05 92 1019.1
20260906024610 12 144 0.0 0.0 0.00 0.05 0.05 91 1019.3
20260906024334 12 144 0.0 0.0 0.00 0.05 0.05 91 1019.1
20260906023610 12 144 0.0 0.0 0.00 0.05 0.05 91 1018.9
20260906023110 12 144 0.0 0.0 0.00 0.05 0.05 90 1018.8
20260906022611 12 144 0.0 0.0 0.00 0.05 0.05 90 1018.7
20260906022108 12 144 0.0 0.0 0.00 0.05 0.05 89 1018.8
20260906021601 12 144 0.0 0.0 0.00 0.05 0.05 89 1018.7
20260906021056 13 144 0.0 0.0 0.00 0.05 0.05 89 1018.7
20260906020543 13 144 0.0 0.0 0.00 0.05 0.05 89 1018.8
20260906020250 13 144 0.0 0.0 0.00 0.05 0.05 88 1018.7
20260906015515 13 144 0.0 1.6 0.00 0.05 0.05 88 1018.7
20260906015017 13 144 0.0 1.6 0.00 0.05 0.05 87 1018.7
20260906014515 13 144 0.0 0.0 0.00 0.05 0.05 86 1018.7
20260906014239 13 144 0.0 0.0 0.00 0.05 0.05 86 1018.7
20260906013519 14 144 0.0 0.0 0.00 0.05 0.05 85 1018.8
20260906013017 14 144 0.0 0.0 0.00 0.05 0.05 84 1018.7
20260906012506 15 144 0.0 0.0 0.00 0.05 0.05 82 1018.5
20260906012002 15 144 0.0 0.0 0.00 0.05 0.05 82 1018.5
20260906011456 15 144 0.0 0.0 0.00 0.05 0.05 81 1018.5
20260906010959 16 144 0.0 0.0 0.00 0.05 0.05 81 1018.4
20260906010455 16 144 0.0 0.0 0.00 0.05 0.05 80 1018.4
20260906005932 16 144 0.0 0.0 0.00 0.05 0.05 78 1018.4
20260906005432 17 144 0.0 0.0 0.00 0.05 0.05 77 1018.4
20260906004931 17 144 0.0 0.0 0.00 0.05 0.05 77 1018.3
20260906004436 17 144 0.0 0.0 0.00 0.05 0.05 78 1018.4
20260906003912 18 144 0.0 0.0 0.00 0.05 0.05 76 1018.4
20260906003408 18 144 0.0 0.0 0.00 0.05 0.05 77 1018.4
20260906002903 18 144 0.0 0.0 0.00 0.05 0.05 78 1018.4
20260906002403 18 144 0.0 0.0 0.00 0.05 0.05 77 1018.4
20260906001903 18 144 0.0 0.0 0.00 0.05 0.05 73 1018.5
20260906001358 18 144 0.0 0.0 0.00 0.05 0.05 68 1018.5
20260906000858 18 144 0.0 0.0 0.00 0.05 0.05 71 1018.6
20260906000359 18 144 0.0 0.0 0.03 0.05 0.05 67 1018.6
20260906000114 18 144 0.0 0.0 0.03 0.05 0.05 73 1018.7
20260905235357 18 144 0.0 0.0 0.03 0.05 0.05 76 1018.7
20260905234853 18 144 0.0 0.0 0.03 0.05 0.05 74 1018.7
20260905234354 18 144 0.0 0.0 0.03 0.05 0.05 74 1018.6
20260905233851 18 144 0.0 0.0 0.03 0.05 0.05 69 1018.7
20260905233334 18 144 0.0 0.0 0.03 0.05 0.05 71 1018.7
20260905232833 18 144 0.0 0.0 0.03 0.05 0.05 70 1018.7
20260905232329 18 144 0.0 0.0 0.03 0.05 0.05 72 1018.8
20260905231825 17 144 0.0 0.0 0.03 0.05 0.05 69 1018.9
20260905231321 17 144 0.0 0.0 0.03 0.05 0.05 66 1018.8
20260905231038 17 144 0.0 0.0 0.00 0.03 0.05 69 1018.9
20260905230321 17 144 0.0 0.0 0.00 0.03 0.03 74 1018.9
20260905225820 17 144 0.0 0.0 0.00 0.03 0.03 71 1018.9
20260905225322 16 144 0.0 0.0 0.00 0.03 0.03 75 1018.9
20260905224816 16 144 0.0 0.0 0.00 0.03 0.03 71 1019.1
20260905224319 16 144 0.0 0.0 0.00 0.03 0.03 80 1019.1
20260905223809 16 144 0.0 0.0 0.00 0.03 0.03 83 1019.2
20260905223253 16 144 0.0 0.0 0.00 0.03 0.03 84 1019.2
20260905223016 16 144 0.0 0.0 0.00 0.03 0.03 83 1019.3
20260905222516 16 144 0.0 0.0 0.00 0.03 0.03 82 1019.3
20260905221741 16 144 0.0 0.0 0.00 0.03 0.03 80 1019.3
20260905221730 17 144 0.0 0.0 0.00 0.03 0.03 80 1019.5
20260905220739 17 144 0.0 0.0 0.00 0.03 0.03 80 1019.5
20260905220458 17 144 0.0 0.0 0.00 0.03 0.03 80 1019.6
20260905215731 17 144 0.0 0.0 0.00 0.03 0.03 78 1019.6
20260905215232 17 144 0.0 0.0 0.00 0.03 0.03 75 1019.7
20260905214956 17 144 0.0 0.0 0.00 0.03 0.03 74 1019.8
20260905214233 17 144 0.0 0.0 0.00 0.03 0.03 72 1019.7
20260905213735 17 144 0.0 0.0 0.00 0.03 0.03 73 1019.8
20260905213442 17 144 0.0 0.0 0.00 0.03 0.03 73 1019.8
20260905212717 17 144 0.0 0.0 0.00 0.03 0.03 72 1019.8
20260905212212 17 144 0.0 0.0 0.00 0.03 0.03 71 1019.8
20260905211713 18 144 0.0 0.0 0.00 0.03 0.03 69 1019.9
20260905211438 18 144 0.0 1.6 0.00 0.03 0.03 68 1019.9
20260905210713 18 144 0.0 1.6 0.00 0.03 0.03 63 1019.9
20260905210216 18 144 0.0 3.2 0.00 0.03 0.03 65 1019.9
20260905205709 17 144 0.0 3.2 0.00 0.03 0.03 64 1019.9
20260905205208 17 142 0.0 4.8 0.00 0.03 0.03 64 1019.9
20260905204704 17 142 0.0 4.8 0.00 0.03 0.03 64 1019.9
20260905204204 17 142 0.0 3.2 0.00 0.03 0.03 68 1019.9
20260905203649 17 142 0.0 3.2 0.00 0.03 0.03 67 1020.1
20260905203143 17 142 0.0 3.2 0.00 0.03 0.03 69 1019.9
20260905202638 17 131 0.0 0.0 0.00 0.03 0.03 68 1020.1
20260905202134 17 131 0.0 3.2 0.00 0.03 0.03 65 1020.2
20260905201848 17 131 0.0 3.2 0.00 0.03 0.03 65 1020.2
20260905201129 17 177 0.0 3.2 0.00 0.03 0.03 67 1020.1
20260905201115 17 177 0.0 3.2 0.00 0.03 0.03 67 1020.2
20260905200125 17 264 0.0 3.2 0.00 0.03 0.03 67 1020.2
20260905195627 17 140 0.0 4.8 0.00 0.03 0.03 68 1020.2
20260905195125 16 141 0.0 4.8 0.00 0.03 0.03 70 1020.3
20260905194624 16 141 0.0 1.6 0.00 0.03 0.03 72 1020.2
20260905194115 16 141 0.0 4.8 0.00 0.03 0.03 76 1020.3
20260905193615 16 140 0.0 4.8 0.00 0.03 0.03 71 1020.3
20260905193115 16 90 0.0 3.2 0.00 0.03 0.03 75 1020.3
20260905192610 15 329 0.0 3.2 0.00 0.03 0.03 77 1020.3
20260905192105 15 329 0.0 4.8 0.00 0.03 0.03 75 1020.4
20260905191608 15 329 0.0 4.8 0.00 0.03 0.03 74 1020.4
20260905191108 15 175 0.0 3.2 0.00 0.03 0.03 75 1020.5
20260905190606 15 174 0.0 8.0 0.00 0.03 0.03 77 1020.5
20260905190106 15 173 0.0 8.0 0.00 0.03 0.03 81 1020.5
20260905185606 15 158 0.0 0.0 0.00 0.03 0.03 80 1020.6
20260905185109 15 158 0.0 1.6 0.00 0.03 0.03 80 1020.5
20260905184551 14 158 0.0 3.2 0.00 0.03 0.03 79 1020.6
20260905184310 14 158 0.0 3.2 0.00 0.03 0.03 80 1020.6
20260905183800 14 292 0.0 0.0 0.00 0.03 0.03 83 1020.6
20260905183045 13 292 0.0 0.0 0.00 0.03 0.03 83 1020.6
20260905182802 13 292 0.0 0.0 0.00 0.03 0.03 86 1020.7
20260905182043 13 292 0.0 1.6 0.00 0.03 0.03 85 1020.7
20260905181543 13 292 0.0 1.6 0.00 0.03 0.03 89 1020.7
20260905181038 12 291 0.0 1.6 0.00 0.03 0.03 88 1020.7
20260905180537 12 291 0.0 0.0 0.00 0.03 0.03 86 1020.8
20260905180038 12 291 0.0 0.0 0.00 0.03 0.03 88 1020.8
20260905175538 12 291 0.0 0.0 0.00 0.03 0.03 89 1020.8
20260905175038 12 291 0.0 0.0 0.00 0.03 0.03 89 1021.1
20260905174528 12 291 0.0 0.0 0.00 0.03 0.03 89 1021.0
20260905174249 11 291 0.0 1.6 0.00 0.03 0.03 91 1021.0
20260905173522 11 291 0.0 1.6 0.00 0.03 0.03 92 1021.0
20260905173013 11 291 0.0 0.0 0.00 0.03 0.03 94 1021.0
20260905172513 11 291 0.0 4.8 0.00 0.03 0.03 96 1021.0
20260905172013 11 291 0.0 4.8 0.00 0.03 0.03 96 1021.0
20260905171731 11 293 0.0 1.6 0.00 0.03 0.03 97 1021.0
20260905171015 10 292 0.0 1.6 0.00 0.03 0.03 98 1021.0
20260905170511 10 293 0.0 0.0 0.00 0.03 0.03 98 1021.0
20260905170010 10 293 0.0 0.0 0.00 0.03 0.03 98 1021.0
20260905165509 10 293 0.0 0.0 0.00 0.03 0.03 97 1021.0
20260905165010 10 293 0.0 0.0 0.00 0.03 0.03 97 1021.0
20260905164732 10 293 0.0 0.0 0.00 0.03 0.03 97 1021.1
20260905164005 10 293 0.0 0.0 0.03 0.03 0.03 97 1021.1
20260905163733 10 293 0.0 0.0 0.03 0.03 0.03 97 1021.0
20260905163006 9 293 0.0 0.0 0.03 0.03 0.03 97 1021.0
20260905162506 9 293 0.0 1.6 0.03 0.03 0.03 97 1020.8
20260905162007 9 293 0.0 3.2 0.03 0.03 0.03 97 1021.0
20260905161501 10 293 0.0 3.2 0.03 0.03 0.03 97 1020.8
20260905161001 10 293 0.0 1.6 0.03 0.03 0.03 98 1020.8
20260905160457 10 293 0.0 0.0 0.03 0.03 0.03 98 1020.8
20260905155954 9 293 0.0 0.0 0.03 0.03 0.03 98 1020.6
20260905155452 9 293 0.0 0.0 0.03 0.03 0.03 98 1020.6
20260905154951 9 293 0.0 0.0 0.03 0.03 0.03 98 1020.6
20260905154455 9 293 0.0 0.0 0.03 0.03 0.03 98 1020.6
20260905153947 9 293 0.0 0.0 0.00 0.00 0.00 98 1020.6
20260905153442 9 293 0.0 0.0 0.00 0.00 0.00 98 1020.6
20260905153203 9 293 0.0 0.0 0.00 0.00 0.00 98 1020.6
20260905152443 9 293 0.0 0.0 0.00 0.00 0.00 98 1020.7
20260905151946 9 293 0.0 0.0 0.00 0.00 0.00 97 1020.6
20260905151443 9 293 0.0 0.0 0.00 0.00 0.00 98 1020.7
20260905150938 9 293 0.0 0.0 0.00 0.03 0.00 98 1020.6
20260905150655 8 293 0.0 0.0 0.00 0.03 0.00 97 1020.6
20260905145933 8 293 0.0 0.0 0.00 0.03 0.00 97 1020.5
20260905145432 8 293 0.0 0.0 0.00 0.03 0.00 97 1020.5
20260905144929 8 293 0.0 0.0 0.00 0.05 0.00 97 1020.5
20260905144414 8 293 0.0 0.0 0.00 0.05 0.00 97 1020.5
20260905143914 8 293 0.0 0.0 0.00 0.05 0.00 97 1020.4
20260905143408 8 293 0.0 0.0 0.00 0.05 0.00 97 1020.4
20260905142909 8 293 0.0 0.0 0.00 0.05 0.00 97 1020.4
20260905142412 8 293 0.0 0.0 0.00 0.05 0.00 97 1020.4
20260905141907 8 293 0.0 0.0 0.00 0.05 0.00 97 1020.4
20260905141405 8 293 0.0 0.0 0.00 0.05 0.00 97 1020.3
20260905140905 8 293 0.0 0.0 0.00 0.05 0.00 97 1020.2
20260905140359 8 293 0.0 0.0 0.00 0.05 0.00 97 1019.9
20260905140128 8 293 0.0 0.0 0.00 0.08 0.00 97 1020.1
20260905135350 8 293 0.0 0.0 0.00 0.08 0.00 97 1020.1
20260905134850 8 293 0.0 0.0 0.00 0.08 0.00 97 1019.9
20260905134346 8 293 0.0 0.0 0.00 0.08 0.00 97 1019.9
20260905133848 8 293 0.0 0.0 0.00 0.08 0.00 97 1019.9
20260905133607 8 293 0.0 0.0 0.00 0.08 0.00 97 1020.1
20260905132846 8 293 0.0 0.0 0.00 0.08 0.00 97 1019.9
20260905132606 8 293 0.0 0.0 0.00 0.08 0.00 97 1019.9
20260905131841 8 293 0.0 0.0 0.00 0.08 0.00 97 1019.6
20260905131336 8 293 0.0 0.0 0.00 0.08 0.00 97 1019.5
20260905130832 8 293 0.0 0.0 0.00 0.08 0.00 97 1019.4
20260905130334 8 293 0.0 0.0 0.00 0.08 0.00 97 1019.2
20260905130058 8 293 0.0 0.0 0.00 0.08 0.00 97 1019.2
20260905125557 8 293 0.0 0.0 0.00 0.08 0.00 97 1019.2
20260905124832 8 293 0.0 0.0 0.00 0.08 0.00 97 1019.1
20260905124328 8 293 0.0 0.0 0.00 0.08 0.00 97 1019.1
20260905124054 8 293 0.0 0.0 0.00 0.08 0.00 97 1019.2
20260905123328 8 293 0.0 0.0 0.00 0.08 0.00 97 1019.2
20260905122829 8 293 0.0 0.0 0.00 0.08 0.00 97 1019.2
20260905122555 8 293 0.0 0.0 0.00 0.08 0.00 97 1019.3
20260905121818 8 293 0.0 0.0 0.00 0.08 0.00 97 1019.3
20260905121314 8 293 0.0 0.0 0.00 0.08 0.00 97 1019.3
20260905120809 8 293 0.0 0.0 0.00 0.08 0.00 97 1019.2
20260905120311 8 293 0.0 0.0 0.00 0.08 0.00 97 1019.1
20260905120032 8 293 0.0 0.0 0.00 0.08 0.00 97 1019.2
20260905115306 8 293 0.0 1.6 0.00 0.08 0.00 97 1019.4
20260905114805 8 293 0.0 1.6 0.00 0.08 0.00 97 1019.4
20260905114522 8 292 0.0 0.0 0.00 0.08 0.00 97 1019.2
20260905114020 8 292 0.0 0.0 0.00 0.08 0.00 97 1019.3
20260905113245 8 292 0.0 0.0 0.00 0.08 0.00 97 1019.3
20260905113005 8 292 0.0 6.4 0.00 0.08 0.00 97 1019.2
20260905112245 8 292 0.0 6.4 0.00 0.08 0.00 97 1019.2
20260905111745 8 289 0.0 0.0 0.00 0.08 0.00 97 1019.2
20260905111225 8 289 0.0 0.0 0.00 0.08 0.00 97 1019.1
20260905110950 8 289 0.0 0.0 0.00 0.08 0.00 97 1019.1
20260905110220 8 289 0.0 0.0 0.00 0.08 0.00 97 1018.8
20260905105721 8 289 0.0 0.0 0.00 0.08 0.00 97 1018.7
20260905105205 8 289 0.0 0.0 0.00 0.08 0.00 97 1018.6
20260905104656 8 289 0.0 0.0 0.00 0.08 0.00 97 1018.7
20260905104150 8 289 0.0 0.0 0.00 0.08 0.00 97 1018.4
20260905103631 8 289 0.0 0.0 0.00 0.08 0.00 97 1018.3
20260905103126 8 289 0.0 0.0 0.00 0.08 0.00 97 1018.4
20260905102854 8 289 0.0 0.0 0.00 0.08 0.00 97 1018.5
20260905102129 8 289 0.0 0.0 0.00 0.08 0.00 97 1018.4
20260905101603 8 289 0.0 0.0 0.00 0.08 0.00 97 1018.5
20260905101058 8 289 0.0 0.0 0.00 0.08 0.00 97 1018.2
20260905100551 8 289 0.0 0.0 0.00 0.08 0.00 97 1018.5
20260905100046 8 289 0.0 0.0 0.00 0.08 0.00 97 1018.4
20260905100022 8 289 0.0 0.0 0.00 0.08 0.00 97 1018.5
20260905095036 8 289 0.0 0.0 0.00 0.08 0.00 97 1018.6
20260905094531 8 289 0.0 0.0 0.00 0.08 0.00 97 1018.7
20260905094032 8 289 0.0 0.0 0.00 0.08 0.00 97 1018.5
20260905093527 8 289 0.0 0.0 0.00 0.08 0.00 97 1018.6
20260905093021 8 289 0.0 0.0 0.00 0.08 0.00 97 1018.5
20260905092522 8 289 0.0 0.0 0.00 0.08 0.00 97 1018.6
20260905092022 8 289 0.0 0.0 0.00 0.08 0.00 97 1018.7
20260905091523 8 289 0.0 0.0 0.00 0.08 0.00 97 1018.5
20260905091022 8 289 0.0 0.0 0.00 0.08 0.00 97 1018.3
20260905090518 8 289 0.0 0.0 0.00 0.08 0.00 97 1018.3
20260905090013 8 289 0.0 0.0 0.00 0.08 0.00 97 1018.5
20260905085511 8 289 0.0 0.0 0.00 0.08 0.00 97 1018.6
20260905084948 8 289 0.0 0.0 0.00 0.08 0.00 97 1018.7
20260905084712 8 289 0.0 0.0 0.00 0.08 0.00 97 1018.8
20260905083947 8 289 0.0 0.0 0.00 0.08 0.00 96 1018.7
20260905083716 8 289 0.0 0.0 0.00 0.08 0.00 96 1018.8
20260905082949 8 289 0.0 0.0 0.00 0.08 0.00 96 1018.7
20260905082444 8 289 0.0 0.0 0.00 0.08 0.00 96 1018.7
20260905081938 8 289 0.0 0.0 0.00 0.08 0.00 96 1018.6
20260905081928 8 289 0.0 0.0 0.00 0.08 0.00 96 1018.5
20260905080923 8 289 0.0 0.0 0.00 0.08 0.00 96 1018.6
20260905080419 8 289 0.0 0.0 0.00 0.08 0.00 96 1018.7
20260905075922 8 289 0.0 0.0 0.00 0.08 0.00 96 1018.8
20260905075419 8 289 0.0 0.0 0.00 0.08 0.00 96 1018.9
20260905074904 8 289 0.0 0.0 0.00 0.08 0.00 96 1018.9
20260905074404 8 289 0.0 0.0 0.00 0.08 0.00 96 1018.9
20260905073900 8 289 0.0 0.0 0.00 0.08 0.00 96 1018.8
20260905073357 8 289 0.0 0.0 0.00 0.08 0.00 96 1018.9
20260905072852 8 289 0.0 0.0 0.00 0.08 0.00 96 1019.2
20260905072350 8 289 0.0 0.0 0.00 0.08 0.00 95 1019.2
20260905072346 8 289 0.0 0.0 0.00 0.08 0.00 95 1019.3
20260905071348 8 289 0.0 0.0 0.00 0.08 0.00 95 1019.1
20260905070844 8 289 0.0 0.0 0.00 0.08 0.00 95 1018.8
20260905070333 8 289 0.0 0.0 0.00 0.08 0.00 95 1018.8
20260905065828 8 289 0.0 0.0 0.00 0.08 0.00 95 1018.7
20260905065315 8 289 0.0 0.0 0.00 0.08 0.00 95 1018.6
20260905064818 8 289 0.0 0.0 0.00 0.08 0.00 95 1018.3
20260905064310 8 289 0.0 0.0 0.00 0.08 0.00 95 1018.3
20260905063811 8 289 0.0 0.0 0.00 0.08 0.00 94 1018.3
20260905063311 8 289 0.0 0.0 0.00 0.08 0.00 95 1018.5
20260905063258 8 289 0.0 0.0 0.00 0.08 0.00 94 1018.5
20260905062312 8 289 0.0 0.0 0.00 0.08 0.00 95 1018.4
20260905061806 8 289 0.0 0.0 0.00 0.08 0.00 95 1018.3
20260905061301 8 289 0.0 0.0 0.00 0.08 0.00 95 1018.4
20260905060757 8 289 0.0 0.0 0.00 0.08 0.00 95 1018.5
20260905060256 8 289 0.0 0.0 0.00 0.08 0.00 95 1018.4
20260905055755 9 289 0.0 0.0 0.00 0.08 0.08 95 1018.5
20260905055247 9 289 0.0 0.0 0.00 0.08 0.08 95 1018.6
20260905054747 9 289 0.0 0.0 0.00 0.08 0.08 95 1018.6
20260905054243 9 289 0.0 0.0 0.00 0.08 0.08 95 1018.5
20260905053738 9 289 0.0 0.0 0.00 0.08 0.08 95 1018.5
20260905053238 9 289 0.0 0.0 0.00 0.08 0.08 95 1018.4
20260905052733 9 289 0.0 0.0 0.00 0.08 0.08 95 1018.5
20260905052454 9 289 0.0 0.0 0.00 0.08 0.08 95 1018.5
20260905051733 9 289 0.0 0.0 0.00 0.08 0.08 95 1018.3
20260905051236 9 289 0.0 0.0 0.00 0.08 0.08 95 1018.3
20260905050724 9 289 0.0 0.0 0.00 0.08 0.08 95 1018.3
20260905050218 9 289 0.0 0.0 0.00 0.08 0.08 95 1018.4
20260905045721 9 289 0.0 0.0 0.00 0.08 0.08 95 1018.4
20260905045214 9 289 0.0 0.0 0.00 0.08 0.08 95 1018.6
20260905044714 9 289 0.0 0.0 0.00 0.08 0.08 95 1018.7
20260905044208 9 289 0.0 0.0 0.00 0.08 0.08 95 1018.7
20260905043710 9 289 0.0 0.0 0.00 0.08 0.08 95 1018.7
20260905043159 9 289 0.0 0.0 0.00 0.08 0.08 94 1018.5
20260905042654 9 289 0.0 0.0 0.00 0.08 0.08 94 1018.7
20260905042154 9 289 0.0 0.0 0.00 0.08 0.08 94 1018.8
20260905041650 9 289 0.0 0.0 0.00 0.08 0.08 94 1018.6
20260905041149 9 289 0.0 0.0 0.00 0.08 0.08 94 1018.5
20260905040650 9 289 0.0 0.0 0.00 0.08 0.08 94 1018.5
20260905040152 9 289 0.0 0.0 0.00 0.08 0.08 94 1018.4
20260905035650 9 289 0.0 0.0 0.00 0.08 0.08 93 1018.3
20260905035632 9 289 0.0 0.0 0.00 0.08 0.08 93 1018.2
20260905034649 9 289 0.0 0.0 0.00 0.08 0.08 93 1018.3
20260905034130 10 289 0.0 0.0 0.00 0.08 0.08 93 1018.2
20260905033633 10 289 0.0 0.0 0.00 0.08 0.08 93 1018.3
20260905033126 10 289 0.0 0.0 0.00 0.08 0.08 93 1018.3
20260905032626 10 289 0.0 0.0 0.00 0.08 0.08 93 1018.1
20260905032129 10 289 0.0 0.0 0.00 0.08 0.08 93 1018.2